Weather History for KIKK - November, 2014

Change the Weather History Date:

Wednesday, November 19, 2014

  Actual Average Record
Temperature  
Mean Temperature 25 °F -  
Max Temperature 34 °F 51 °F 70 °F (1979)
Min Temperature 16 °F 33 °F 16 °F (1989)
Degree Days  
Heating Degree Days 40    
Moisture  
Dew Point 15 °F    
Average Humidity 66    
Maximum Humidity 75    
Minimum Humidity 57    
Precipitation  
Precipitation 0.00 in - - ()
Sea Level Pressure  
Sea Level Pressure 29.93 in    
Wind  
Wind Speed 15 mph (SW)    
Max Wind Speed 29 mph    
Max Gust Speed 34 mph    
Visibility 10 miles    
Events Snow    
Averages and records for this station are not official NWS values.
T = Trace of Precipitation, MM = Missing Value Source: NWS Daily Summary

Daily Weather History Graph

Daily Weather History Graph

Search for Another Location

Airport or City:

Trip Planner

Search our weather history database for the weather conditions in past years. The results will help you decide how hot, cold, wet, or windy it might be!

Date:

Astronomy

Nov. 19, 2014 Rise Set
Actual Time 6:43 AM CST 4:29 PM CST
Civil Twilight 6:13 AM CST 4:59 PM CST
Nautical Twilight 5:40 AM CST 5:32 PM CST
Astronomical Twilight 5:07 AM CST 6:05 PM CST
Moon 3:37 AM CST (11/19) 2:58 PM CST (11/19)
Length of Visible Light 10h 45m
Length of Day
9h 45m
Waning Crescent, 8% of the Moon is Illuminated
Nov 19
Waning Crescent
Nov 22
New
Nov 29
First Quarter
Dec 6
Full
Dec 14
Last Quarter

Hourly Weather History & Observations

Time (CST) Temp. Windchill Dew Point Humidity Pressure Visibility Wind Dir Wind Speed Gust Speed Precip Events Conditions
12:15 AM 16.5 °F 6.0 °F 9.5 °F 74% 30.09 in 10.0 mi South 8.1 mph - N/A   Clear
12:35 AM 16.7 °F 3.8 °F 9.5 °F 73% 30.09 in 10.0 mi South 11.5 mph - N/A   Scattered Clouds
12:55 AM 16.7 °F 5.3 °F 9.5 °F 73% 30.07 in 10.0 mi South 9.2 mph - N/A   Scattered Clouds
1:15 AM 17.2 °F 4.5 °F 10.0 °F 73% 30.06 in 10.0 mi South 11.5 mph - N/A   Scattered Clouds
1:35 AM 17.4 °F 4.7 °F 10.4 °F 74% 30.05 in 10.0 mi South 11.5 mph - N/A   Mostly Cloudy
1:55 AM 18.0 °F 4.2 °F 10.4 °F 72% 30.04 in 10.0 mi South 13.8 mph 20.7 mph N/A   Overcast
2:15 AM 18.3 °F 4.6 °F 10.4 °F 71% 30.02 in 10.0 mi South 13.8 mph 20.7 mph N/A   Overcast
2:35 AM 18.5 °F 4.9 °F 10.4 °F 71% 29.99 in 10.0 mi SSE 13.8 mph 21.9 mph N/A   Overcast
2:55 AM 19.2 °F 5.8 °F 10.4 °F 69% 29.97 in 10.0 mi SSE 13.8 mph 19.6 mph N/A   Overcast
3:15 AM 19.9 °F 7.9 °F 10.6 °F 67% 29.95 in 10.0 mi SSE 11.5 mph 18.4 mph N/A   Overcast
3:35 AM 20.1 °F 8.1 °F 11.1 °F 68% 29.94 in 10.0 mi SSE 11.5 mph - N/A   Overcast
3:55 AM 20.3 °F 7.7 °F 11.3 °F 68% 29.92 in 10.0 mi SSE 12.7 mph 20.7 mph N/A   Scattered Clouds
4:15 AM 20.7 °F 7.6 °F 12.0 °F 69% 29.90 in 10.0 mi SSE 13.8 mph 20.7 mph N/A   Mostly Cloudy
4:35 AM 21.0 °F 8.1 °F 12.9 °F 71% 29.89 in 10.0 mi South 13.8 mph 18.4 mph N/A   Overcast
4:55 AM 21.2 °F 9.5 °F 13.1 °F 71% 29.87 in 10.0 mi SSE 11.5 mph 20.7 mph N/A   Overcast
5:15 AM 21.9 °F 9.8 °F 13.8 °F 71% 29.87 in 10.0 mi SSE 12.7 mph 19.6 mph N/A   Overcast
5:35 AM 22.5 °F 10.5 °F 14.2 °F 71% 29.85 in 10.0 mi SSE 12.7 mph - N/A   Overcast
5:55 AM 22.8 °F 11.5 °F 14.5 °F 71% 29.85 in 10.0 mi SSE 11.5 mph 18.4 mph N/A   Overcast
6:15 AM 23.0 °F 9.2 °F 15.1 °F 72% 29.84 in 10.0 mi SSE 17.3 mph 21.9 mph N/A   Overcast
6:35 AM 23.2 °F 12.0 °F 15.6 °F 73% 29.84 in 10.0 mi South 11.5 mph 20.7 mph N/A   Overcast
6:55 AM 23.7 °F 11.0 °F 16.5 °F 74% 29.82 in 10.0 mi South 15.0 mph 20.7 mph N/A   Overcast
7:15 AM 24.3 °F 11.7 °F 17.2 °F 75% 29.82 in 10.0 mi South 15.0 mph - N/A   Overcast
7:35 AM 24.8 °F 11.9 °F 18.0 °F 75% 29.81 in 10.0 mi South 16.1 mph - N/A   Overcast
7:55 AM 25.7 °F 13.5 °F 18.9 °F 75% 29.80 in 10.0 mi South 15.0 mph 21.9 mph N/A   Overcast
8:15 AM 26.6 °F 14.7 °F 19.4 °F 74% 29.80 in 10.0 mi South 15.0 mph 19.6 mph N/A   Overcast
8:35 AM 28.2 °F 17.7 °F 20.5 °F 73% 29.80 in 10.0 mi SSW 12.7 mph 18.4 mph N/A   Overcast
8:55 AM 29.5 °F 18.4 °F 21.2 °F 71% 29.80 in 10.0 mi SSW 15.0 mph - N/A   Mostly Cloudy
9:15 AM 32.2 °F 20.7 °F 22.3 °F 67% 29.80 in 10.0 mi SW 18.4 mph 23.0 mph N/A   Scattered Clouds
9:35 AM 33.6 °F 22.2 °F 22.3 °F 63% 29.80 in 10.0 mi WSW 19.6 mph - N/A   Clear
9:55 AM 33.8 °F 22.5 °F 21.4 °F 60% 29.80 in 10.0 mi West 19.6 mph 26.5 mph N/A   Scattered Clouds
10:15 AM 33.8 °F 23.2 °F 20.8 °F 59% 29.81 in 10.0 mi WSW 17.3 mph 27.6 mph N/A   Scattered Clouds
10:35 AM 34.0 °F 23.0 °F 21.0 °F 59% 29.82 in 10.0 mi West 18.4 mph 26.5 mph N/A   Scattered Clouds
10:55 AM 33.8 °F 22.2 °F 20.3 °F 58% 29.81 in 10.0 mi West 20.7 mph 28.8 mph N/A   Overcast
11:15 AM 32.9 °F 20.7 °F 20.1 °F 59% 29.82 in 10.0 mi West 21.9 mph 28.8 mph N/A   Overcast
11:35 AM 32.0 °F 20.1 °F 19.4 °F 60% 29.82 in 10.0 mi West 19.6 mph 29.9 mph N/A   Overcast
11:55 AM 32.2 °F 19.1 °F 19.8 °F 60% 29.83 in 10.0 mi West 24.2 mph 29.9 mph N/A   Overcast
12:15 PM 32.2 °F 18.9 °F 18.9 °F 58% 29.83 in 10.0 mi West 25.3 mph 32.2 mph N/A   Overcast
12:35 PM 32.0 °F 17.9 °F 19.4 °F 60% 29.84 in 10.0 mi West 28.8 mph 34.5 mph N/A   Overcast
12:55 PM 31.1 °F 17.4 °F 19.4 °F 62% 29.85 in 10.0 mi West 25.3 mph 33.4 mph N/A   Overcast
1:15 PM 30.2 °F 16.5 °F 19.2 °F 64% 29.86 in 10.0 mi West 24.2 mph 27.6 mph N/A   Overcast
1:35 PM 29.8 °F 16.3 °F 19.0 °F 64% 29.86 in 10.0 mi West 23.0 mph 29.9 mph N/A   Overcast
1:55 PM 29.7 °F 16.7 °F 18.3 °F 63% 29.87 in 10.0 mi West 20.7 mph 34.5 mph N/A   Overcast
2:15 PM 28.9 °F 14.3 °F 16.7 °F 60% 29.87 in 7.0 mi West 26.5 mph 34.5 mph N/A   Overcast
2:35 PM 28.4 °F 14.7 °F 16.5 °F 61% 29.89 in 10.0 mi West 21.9 mph 32.2 mph N/A   Overcast
2:55 PM 27.5 °F 12.9 °F 15.6 °F 61% 29.90 in 10.0 mi West 24.2 mph 31.1 mph N/A   Overcast
3:15 PM 27.9 °F 12.8 °F 14.9 °F 58% 29.90 in 10.0 mi West 26.5 mph 34.5 mph N/A   Overcast
3:35 PM 28.0 °F 14.3 °F 14.4 °F 57% 29.92 in 10.0 mi West 21.9 mph 32.2 mph N/A   Overcast
3:55 PM 27.7 °F 13.5 °F 14.9 °F 59% 29.92 in 10.0 mi West 23.0 mph 27.6 mph N/A   Overcast
4:15 PM 27.5 °F 12.6 °F 14.9 °F 59% 29.94 in 10.0 mi West 25.3 mph 29.9 mph N/A   Overcast
4:35 PM 27.1 °F 12.7 °F 15.1 °F 60% 29.95 in 10.0 mi West 23.0 mph 28.8 mph N/A   Overcast
4:55 PM 26.6 °F 13.4 °F 15.1 °F 62% 29.96 in 10.0 mi West 18.4 mph 24.2 mph N/A   Overcast
5:15 PM 26.4 °F 11.2 °F 14.2 °F 60% 29.97 in 10.0 mi West 25.3 mph 33.4 mph N/A   Overcast
5:35 PM 26.2 °F 10.6 °F 14.0 °F 60% 29.98 in 10.0 mi West 26.5 mph 33.4 mph N/A   Overcast
5:55 PM 25.7 °F 11.9 °F 14.0 °F 61% 30.00 in 10.0 mi West 19.6 mph 28.8 mph N/A Snow Light Snow
6:15 PM 25.5 °F 10.9 °F 14.2 °F 62% 30.02 in 10.0 mi WNW 21.9 mph 26.5 mph N/A   Overcast
6:35 PM 25.2 °F 10.4 °F 14.7 °F 65% 30.02 in 10.0 mi West 21.9 mph 28.8 mph N/A   Overcast
6:55 PM 24.8 °F 10.3 °F 14.4 °F 65% 30.03 in 10.0 mi West 20.7 mph 27.6 mph N/A   Overcast
7:15 PM 24.8 °F 11.9 °F 14.2 °F 64% 30.04 in 10.0 mi West 16.1 mph 24.2 mph N/A Snow Light Snow
7:35 PM 25.2 °F 11.2 °F 13.3 °F 61% 30.04 in 10.0 mi West 19.6 mph 23.0 mph N/A   Overcast
7:55 PM 24.8 °F 10.3 °F 13.8 °F 63% 30.04 in 10.0 mi West 20.7 mph 25.3 mph N/A   Overcast
8:15 PM 24.8 °F 11.5 °F 13.8 °F 63% 30.05 in 10.0 mi West 17.3 mph 28.8 mph N/A   Overcast
8:35 PM 25.3 °F 12.6 °F 12.4 °F 58% 30.05 in 10.0 mi West 16.1 mph 25.3 mph N/A   Overcast
8:55 PM 25.2 °F 12.0 °F 12.9 °F 60% 30.05 in 10.0 mi West 17.3 mph - N/A   Overcast
9:15 PM 25.3 °F 12.6 °F 12.7 °F 59% 30.06 in 10.0 mi West 16.1 mph 20.7 mph N/A   Overcast
9:35 PM 25.3 °F 11.8 °F 13.1 °F 60% 30.06 in 10.0 mi West 18.4 mph 21.9 mph N/A   Overcast
9:55 PM 25.2 °F 14.4 °F 13.8 °F 62% 30.06 in 10.0 mi West 11.5 mph 19.6 mph N/A   Overcast
10:15 PM 24.8 °F 12.4 °F 14.7 °F 66% 30.06 in 10.0 mi West 15.0 mph 20.7 mph N/A   Overcast
10:35 PM 24.8 °F 13.4 °F 14.7 °F 66% 30.06 in 10.0 mi West 12.7 mph - N/A   Overcast
10:55 PM 24.6 °F 12.7 °F 14.7 °F 66% 30.07 in 10.0 mi West 13.8 mph 18.4 mph N/A   Overcast
11:15 PM 23.9 °F 12.9 °F 14.5 °F 67% 30.07 in 10.0 mi WSW 11.5 mph 19.6 mph N/A   Overcast
11:35 PM 23.5 °F 10.3 °F 14.9 °F 70% 30.07 in 10.0 mi WSW 16.1 mph 19.6 mph N/A   Overcast
11:55 PM 22.1 °F 9.5 °F 14.7 °F 73% 30.07 in 10.0 mi West 13.8 mph - N/A   Scattered Clouds